timestamp,surface_pressure_avg,surface_temp_avg,battery_voltage,lat,long
2020-03-12 00:09:01+00:00,348.5464,-0.1,12.65,47.84626,-54.09684
2020-03-12 00:19:01+00:00,358.4913,-0.1,12.57,47.84626,-54.09684
2020-03-12 00:29:01+00:00,365.4029,-0.1,12.57,47.84626,-54.09684
2020-03-12 00:39:01+00:00,361.7162,-0.1,12.57,47.84626,-54.09684
2020-03-12 00:49:01+00:00,354.978,-0.1,12.57,47.84626,-54.09684
2020-03-12 00:59:01+00:00,363.3663,-0.1,12.57,47.84626,-54.09684
2020-03-12 01:09:01+00:00,371.338,-0.1,12.57,47.84626,-54.09684
2020-03-12 01:19:01+00:00,369.7814,-0.1,12.57,47.84626,-54.09684
2020-03-12 01:29:01+00:00,371.978,-0.1,12.57,47.84626,-54.09684
2020-03-12 01:39:01+00:00,379.7061,-0.1,12.57,47.84626,-54.09684
2020-03-12 01:49:01+00:00,381.7729,-0.1,12.57,47.84626,-54.09684
2020-03-12 01:59:01+00:00,376.0729,-0.13,12.57,47.84626,-54.09684
2020-03-12 02:09:01+00:00,377.278,-0.1,12.57,47.84626,-54.09684
2020-03-12 02:19:01+00:00,375.0845,-0.1,12.57,47.84626,-54.09684
2020-03-12 02:29:01+00:00,361.908,-0.1,12.57,47.84626,-54.09684
2020-03-12 02:39:01+00:00,351.418,-0.1,12.57,47.84626,-54.09684
2020-03-12 02:49:01+00:00,346.3313,-0.1,12.57,47.84626,-54.09684
2020-03-12 02:59:01+00:00,336.7563,-0.1,12.57,47.84626,-54.09684
2020-03-12 03:09:01+00:00,325.763,-0.1,12.57,47.84626,-54.09684
2020-03-12 03:19:01+00:00,331.0563,-0.1,12.57,47.84626,-54.09684
2020-03-12 03:29:01+00:00,341.3130000000001,-0.1,12.57,47.84626,-54.09684
2020-03-12 03:39:01+00:00,332.5496,-0.1,12.57,47.84626,-54.09684
2020-03-12 03:49:01+00:00,323.2745,-0.12,12.57,47.84626,-54.09684
2020-03-12 03:59:01+00:00,320.6429,-0.17,12.57,47.84626,-54.09684
2020-03-12 04:09:01+00:00,306.068,-0.2,12.57,47.84626,-54.09684
2020-03-12 04:19:01+00:00,280.7064,-0.23,12.49,47.84626,-54.09684
2020-03-12 04:29:01+00:00,265.8464,-0.25,12.49,47.84626,-54.09684
2020-03-12 04:39:01+00:00,259.1464,-0.21,12.49,47.84626,-54.09684
2020-03-12 04:49:01+00:00,243.5381,-0.2,12.49,47.84626,-54.09684
2020-03-12 04:59:01+00:00,230.7198,-0.2,12.49,47.84626,-54.09684
2020-03-12 05:09:01+00:00,227.3664,-0.2,12.49,47.84626,-54.09684
2020-03-12 05:19:01+00:00,222.6497,-0.2,12.49,47.84626,-54.09684
2020-03-12 05:29:01+00:00,210.5098,-0.2,12.49,47.84626,-54.09684
2020-03-12 05:39:01+00:00,202.7714,-0.2,12.49,47.84626,-54.09684
2020-03-12 05:49:01+00:00,202.4331,-0.2,12.49,47.84626,-54.09684
2020-03-12 05:59:01+00:00,189.4948,-0.2,12.49,47.84626,-54.09684
2020-03-12 06:09:01+00:00,173.8348,-0.2,12.49,47.84626,-54.09684
2020-03-12 06:19:01+00:00,170.3382,-0.24,12.49,47.84626,-54.09684
2020-03-12 06:29:01+00:00,164.7632,-0.3,12.49,47.84626,-54.09684
2020-03-12 06:39:01+00:00,153.7098,-0.3,12.49,47.84626,-54.09684
2020-03-12 06:49:01+00:00,152.9882,-0.3,12.49,47.84626,-54.09684
2020-03-12 06:59:01+00:00,157.4131,-0.3,12.49,47.84626,-54.09684
2020-03-12 07:09:01+00:00,156.2165,-0.3,12.49,47.84626,-54.09684
2020-03-12 07:19:01+00:00,158.1198,-0.3,12.49,47.84626,-54.09684
2020-03-12 07:29:01+00:00,167.5265,-0.3,12.49,47.84626,-54.09684
2020-03-12 07:39:01+00:00,171.8148,-0.3,12.49,47.84626,-54.09684
2020-03-12 07:49:01+00:00,171.4182,-0.24,12.49,47.84626,-54.09684
2020-03-12 07:59:01+00:00,176.1948,-0.21,12.49,47.84626,-54.09684
2020-03-12 08:09:01+00:00,182.2115,-0.2,12.49,47.84626,-54.09684
2020-03-12 08:19:01+00:00,185.1148,-0.2,12.49,47.84626,-54.09684
2020-03-12 08:29:01+00:00,185.7664,-0.2,12.49,47.84626,-54.09684
2020-03-12 08:39:01+00:00,188.8265,-0.2,12.49,47.84626,-54.09684
2020-03-12 08:49:01+00:00,193.8214,-0.2,12.49,47.84626,-54.09684
2020-03-12 08:59:01+00:00,195.3597,-0.2,12.49,47.84626,-54.09684
2020-03-12 09:09:01+00:00,198.4231,-0.2,12.49,47.84626,-54.09684
2020-03-12 09:19:01+00:00,211.4448,-0.2,12.49,47.84626,-54.09684
2020-03-12 09:29:01+00:00,220.9781,-0.2,12.49,47.84626,-54.09684
2020-03-12 09:39:01+00:00,228.0847,-0.2,12.49,47.84626,-54.09684
2020-03-12 09:49:01+00:00,233.7614,-0.2,12.49,47.84626,-54.09684
2020-03-12 09:59:01+00:00,234.7415,-0.2,12.49,47.84626,-54.09684
2020-03-12 10:09:01+00:00,236.868,-0.2,12.49,47.84626,-54.09684
2020-03-12 10:19:01+00:00,247.4947,-0.2,12.49,47.84626,-54.09684
2020-03-12 10:29:01+00:00,250.1464,-0.2,12.49,47.84626,-54.09684
2020-03-12 10:39:01+00:00,245.6981,-0.2,12.49,47.84626,-54.09684
2020-03-12 10:49:01+00:00,248.5464,-0.2,12.49,47.84626,-54.09684
2020-03-12 10:59:01+00:00,259.5231,-0.12,12.49,47.84626,-54.09684
2020-03-12 11:09:01+00:00,269.9297,-0.1,12.49,47.84626,-54.09684
2020-03-12 11:19:01+00:00,279.2464,-0.1,12.57,47.84626,-54.09684
2020-03-12 11:29:01+00:00,291.8831,-0.1,12.57,47.84626,-54.09684
2020-03-12 11:39:01+00:00,303.1846,-0.2,12.57,47.84626,-54.09684
2020-03-12 11:49:01+00:00,317.3397,-0.2,12.57,47.84626,-54.09684
2020-03-12 11:59:01+00:00,327.9246,-0.2,12.57,47.84626,-54.09684
2020-03-12 12:09:01+00:00,335.0113,-0.12,12.57,47.84626,-54.09684
2020-03-12 12:19:01+00:00,340.4363,-0.1,12.65,47.84626,-54.09684
2020-03-12 12:29:01+00:00,345.8096,-0.1,12.65,47.84626,-54.09684
2020-03-12 12:39:01+00:00,352.8079,-0.01,12.65,47.84626,-54.09684
2020-03-12 12:49:01+00:00,358.2712,0.0,12.65,47.84626,-54.09684
2020-03-12 12:59:01+00:00,372.3513,0.0,12.65,47.84626,-54.09684
2020-03-12 13:09:01+00:00,378.423,0.0,12.65,47.84626,-54.09684
2020-03-12 13:19:01+00:00,375.6279,0.0,12.97,47.84626,-54.09684
2020-03-12 13:29:01+00:00,382.4596,-0.01,12.97,47.84626,-54.09684
2020-03-12 13:39:01+00:00,389.8979,-0.0,12.97,47.84626,-54.09684
2020-03-12 13:49:01+00:00,387.4095,0.0,12.97,47.84626,-54.09684
2020-03-12 13:59:01+00:00,383.4178,-0.0,12.97,47.84626,-54.09684
2020-03-12 14:09:01+00:00,385.5645,-0.0,12.97,47.84626,-54.09684
2020-03-12 14:19:01+00:00,389.7397,-0.0,13.21,47.84626,-54.09684
2020-03-12 14:29:01+00:00,385.1346,0.0,13.21,47.84626,-54.09684
2020-03-12 14:39:01+00:00,379.9279,0.0,13.21,47.84626,-54.09684
2020-03-12 14:49:01+00:00,371.6597,0.0,13.21,47.84626,-54.09684
2020-03-12 14:59:01+00:00,363.7346,0.0,13.21,47.84626,-54.09684
2020-03-12 15:09:01+00:00,367.4579,0.0,13.21,47.84626,-54.09684
2020-03-12 15:19:01+00:00,364.9329,0.0,13.44,47.84626,-54.09684
2020-03-12 15:29:01+00:00,356.093,0.0,13.44,47.84626,-54.09684
2020-03-12 15:39:01+00:00,352.723,0.0,13.44,47.84626,-54.09684
2020-03-12 15:49:01+00:00,351.8113,0.0,13.44,47.84626,-54.09684
2020-03-12 15:59:01+00:00,347.5112,0.0,13.44,47.84626,-54.09684
2020-03-12 16:09:01+00:00,331.4464,0.0,13.44,47.84626,-54.09684
2020-03-12 16:19:01+00:00,317.7414,0.0,13.68,47.84626,-54.09684
2020-03-12 16:29:01+00:00,306.8447,0.0,13.68,47.84626,-54.09684
2020-03-12 16:39:01+00:00,293.2563,0.0,13.68,47.84626,-54.09684
2020-03-12 16:49:01+00:00,275.5414,0.0,13.68,47.84626,-54.09684
2020-03-12 16:59:01+00:00,268.9264,0.0,13.68,47.84626,-54.09684
2020-03-12 17:09:01+00:00,271.8147,0.0,13.68,47.84626,-54.09684
2020-03-12 17:19:01+00:00,256.0914,0.0,14.0,47.84626,-54.09684
2020-03-12 17:29:01+00:00,240.7164,0.0,14.0,47.84626,-54.09684
2020-03-12 17:39:01+00:00,240.578,0.0,14.0,47.84626,-54.09684
2020-03-12 17:49:01+00:00,229.8431,0.0,14.0,47.84626,-54.09684
2020-03-12 17:59:01+00:00,205.8781,0.0,14.0,47.84626,-54.09684
2020-03-12 18:09:01+00:00,190.8297,0.0,14.0,47.84626,-54.09684
2020-03-12 18:19:01+00:00,185.5598,0.0,14.0,47.84626,-54.09684
2020-03-12 18:29:01+00:00,185.3865,0.01,14.0,47.84626,-54.09684
2020-03-12 18:39:01+00:00,184.0331,0.01,14.0,47.84626,-54.09684
2020-03-12 18:49:01+00:00,171.4715,0.05,14.0,47.84626,-54.09684
2020-03-12 18:59:01+00:00,162.0098,0.09,14.0,47.84626,-54.09684
2020-03-12 19:09:01+00:00,163.9632,0.09,14.0,47.84626,-54.09684
2020-03-12 19:19:01+00:00,155.6231,0.1,14.08,47.84626,-54.09684
2020-03-12 19:29:01+00:00,145.2065,0.1,14.08,47.84626,-54.09684
2020-03-12 19:39:01+00:00,150.2432,0.1,14.08,47.84626,-54.09684
2020-03-12 19:49:01+00:00,152.1382,0.1,14.08,47.84626,-54.09684
2020-03-12 19:59:01+00:00,145.9165,0.1,14.08,47.84626,-54.09684
2020-03-12 20:09:01+00:00,160.1915,0.08,14.08,47.84626,-54.09684
2020-03-12 20:19:01+00:00,170.1215,0.07,13.92,47.84626,-54.09684
2020-03-12 20:29:01+00:00,173.3048,0.07,13.92,47.84626,-54.09684
2020-03-12 20:39:01+00:00,182.6031,0.06,13.92,47.84626,-54.09684
2020-03-12 20:49:01+00:00,182.7082,0.04,13.92,47.84626,-54.09684
2020-03-12 20:59:01+00:00,170.6448,0.07,13.92,47.84626,-54.09684
2020-03-12 21:09:01+00:00,171.4648,0.07,13.92,47.84626,-54.09684
2020-03-12 21:19:01+00:00,185.5815,0.02,13.6,47.84626,-54.09684
2020-03-12 21:29:01+00:00,186.2581,0.05,13.6,47.84626,-54.09684
2020-03-12 21:39:01+00:00,196.7665,0.04,13.6,47.84626,-54.09684
2020-03-12 21:49:01+00:00,216.1215,0.0,13.6,47.84626,-54.09684
2020-03-12 21:59:01+00:00,221.5247,0.03,13.6,47.84626,-54.09684
2020-03-12 22:09:01+00:00,221.5748,0.04,13.6,47.84626,-54.09684
2020-03-12 22:19:01+00:00,228.2314,0.04,13.13,47.84626,-54.09684
2020-03-12 22:29:01+00:00,234.5948,0.06,13.13,47.84626,-54.09684
2020-03-12 22:39:01+00:00,238.5531,0.1,13.13,47.84626,-54.09684
2020-03-12 22:49:01+00:00,244.5247,0.1,13.13,47.84626,-54.09684
2020-03-12 22:59:01+00:00,254.9514,0.1,13.13,47.84626,-54.09684
2020-03-12 23:09:01+00:00,255.1364,0.1,13.13,47.84626,-54.09684
2020-03-12 23:19:01+00:00,255.1264,0.1,12.81,47.84626,-54.09684
2020-03-12 23:29:01+00:00,269.0514,0.1,12.81,47.84626,-54.09684
2020-03-12 23:39:01+00:00,285.2664,0.1,12.81,47.84626,-54.09684
2020-03-12 23:49:01+00:00,290.8464,0.06,12.81,47.84626,-54.09684
2020-03-12 23:59:01+00:00,302.0696,0.08,12.81,47.84626,-54.09684
